STARLINK-32281, 60375

Orbit data source: Space-Track

STARLINK-32281, 60375 is a payload satellite owned by SpaceX/Seattle (US) in LEO that was launched on Sun, 04 Aug 2024 UTC via an FALCON 9 launch vehicle from the Air Force Western Test Range (AFWTR). Payload-class satellites include a variety of spacecraft equipped with specific instruments for various scientific and technological missions. These include communications satellites like Starlink; space stations such as the ISS; scientific satellites like the Hubble; Earth observation satellites from companies like Planet Labs, Umbra, and HawkEye 360; GPS; miniature CubeSats for education and research; and military/defense satellites.

Loading next visibility...
Identifier
60375, 2024-138W
Orbit
LEO
Country
Flag of USUS
Related business
Manufacturer
SpaceX/Seattle
Mission
Operational Commercial Communications
Bus & Motor
STARLINK V2M, Unknown motor
Mass
730 kg wet, ~700 kg dry
Launch date (UTC)
2024-08-04 (1 year ago)
Launch vehicle
FALCON 9
Launch site
Air Force Western Test Range (AFWTR)
Object type
Payload
Rocket body
Debris
Shape & HBR
Box + 2 Pan, 17.7 m
Radar Cross Section
33.884 m², Large (>1 m²)

Expand to show TLE details & history
Last TLE update: 22 hours ago

TLE from 22 hours ago
0 STARLINK-32281
1 60375U 24138W   25352.32871028 -.00001440  00000-0 -36498-4 0  9992
2 60375  53.1625 327.3217 0001128  87.6106 272.5024 15.30203201 78071
Epoch: 2025-12-18T07:53Z
TLE epoch observation values (Epoch: 2025-12-18T07:53:20.568Z)
Latitude
-0°
Longitude
121.80021°
Altitude
476.072 km
Speed
7.629 km/s
True Right ascension
21h 49m 17s
True Declination
0° 00' 00"
Sunlit
Object was in daylight at epoch
Visualization orbit readout
Latitude
Unknown
Longitude
Unknown
Altitude
Unknown
Speed
Unknown
Apparent Right ascension
Unknown
Apparent Declination
Unknown
Sunlit
N/A
Visualization observer readout
Local Sidereal Time
04:24:07
Azimuth
Unknown
Elevation
Unknown
Doppler factor
Unknown
Orbital elements
Apogee altitude
476.235 km
Perigee altitude
474.688 km
Semi-major axis
6,853.599 km
Eccentricity
0.00011
Inclination
53.1625°
RAAN
327.3217°
Arg. of periapsis
87.6106°
True anomaly
272.48949°
Mean anomaly
272.5024°
Eccentric anomaly
272.49594°
Mean motion
3.8253 °/min
Orbital period
94.11 mins
BSTAR
-0.000036498
Loading maneuver chart data...
Computing Atmospheric mass density...
Loading historical data...
Loading historical data...
Loading historical data...
Loading historical data...
Loading historical data...
Loading historical data...
Loading historical data...

Documentation

Showing up to 5 results
|